Time,TemperatureF,DewpointF,PressureIn,WindDirection,WindDirectionDegrees,WindSpeedMPH,WindSpeedGustMPH,Humidity,HourlyPrecipIn,Conditions,Clouds,dailyrainin,SoftwareType,DateUTC
2013-03-23 00:01:00,36.9,30.9,30.15,ENE,67,9.0,20.0,79,0.00,,,0.00,meteohub,2013-03-23 05:01:00,
2013-03-23 00:06:00,36.7,30.7,30.15,ENE,67,19.0,20.0,79,0.00,,,0.00,meteohub,2013-03-23 05:06:00,
2013-03-23 00:11:00,36.7,31.1,30.15,ENE,70,13.0,19.0,80,0.00,,,0.00,meteohub,2013-03-23 05:11:00,
2013-03-23 00:17:00,36.5,31.3,30.15,ENE,70,13.0,19.0,81,0.00,,,0.00,meteohub,2013-03-23 05:17:00,
2013-03-23 00:22:00,36.5,31.5,30.15,ENE,74,12.0,19.0,82,0.00,,,0.00,meteohub,2013-03-23 05:22:00,
2013-03-23 00:27:00,36.3,31.3,30.15,East,80,13.0,18.0,82,0.00,,,0.00,meteohub,2013-03-23 05:27:00,
2013-03-23 00:32:00,36.3,31.6,30.14,East,96,12.0,16.0,83,0.00,,,0.00,meteohub,2013-03-23 05:32:00,
2013-03-23 00:37:00,36.3,31.6,30.14,ENE,63,13.0,16.0,83,0.00,,,0.00,meteohub,2013-03-23 05:37:00,
2013-03-23 00:42:00,36.3,31.6,30.14,ENE,72,11.0,17.0,83,0.00,,,0.00,meteohub,2013-03-23 05:42:00,
2013-03-23 00:47:00,36.3,31.3,30.14,ENE,70,12.0,17.0,82,0.00,,,0.00,meteohub,2013-03-23 05:47:00,
2013-03-23 00:52:00,36.3,31.1,30.13,East,88,12.0,18.0,81,0.00,,,0.00,meteohub,2013-03-23 05:52:00,
2013-03-23 00:57:00,36.3,31.1,30.13,ENE,68,19.0,20.0,81,0.00,,,0.00,meteohub,2013-03-23 05:57:00,
2013-03-23 01:02:00,36.3,31.1,30.13,ENE,57,9.0,20.0,81,0.00,,,0.00,meteohub,2013-03-23 06:02:00,
2013-03-23 01:07:00,36.3,31.1,30.13,East,101,11.0,20.0,81,0.00,,,0.00,meteohub,2013-03-23 06:07:00,
2013-03-23 01:12:00,36.3,31.1,30.14,East,86,12.0,20.0,81,0.00,,,0.00,meteohub,2013-03-23 06:12:00,
2013-03-23 01:17:00,36.3,31.1,30.14,ENE,70,17.0,20.0,81,0.00,,,0.00,meteohub,2013-03-23 06:17:00,
2013-03-23 01:22:00,36.3,31.3,30.14,East,80,6.0,20.0,82,0.00,,,0.00,meteohub,2013-03-23 06:22:00,
2013-03-23 01:27:00,36.3,31.3,30.14,East,98,9.0,20.0,82,0.00,,,0.00,meteohub,2013-03-23 06:27:00,
2013-03-23 01:32:00,36.3,31.3,30.14,East,84,12.0,20.0,82,0.00,,,0.00,meteohub,2013-03-23 06:32:00,
2013-03-23 01:37:00,36.1,30.9,30.14,East,99,7.0,18.0,81,0.00,,,0.00,meteohub,2013-03-23 06:37:00,
2013-03-23 01:42:00,36.1,30.9,30.15,East,85,8.0,18.0,81,0.00,,,0.00,meteohub,2013-03-23 06:42:00,
2013-03-23 01:47:00,36.1,31.1,30.15,East,89,9.0,18.0,82,0.00,,,0.00,meteohub,2013-03-23 06:47:00,
2013-03-23 01:52:00,36.1,30.9,30.15,East,84,11.0,20.0,81,0.00,,,0.00,meteohub,2013-03-23 06:52:00,
2013-03-23 01:57:00,36.1,30.9,30.15,ENE,68,10.0,20.0,81,0.00,,,0.00,meteohub,2013-03-23 06:57:00,
2013-03-23 02:02:00,36.1,30.9,30.14,East,93,11.0,20.0,81,0.00,,,0.00,meteohub,2013-03-23 07:02:00,
2013-03-23 02:07:00,36.1,30.9,30.14,East,91,16.0,17.0,81,0.00,,,0.00,meteohub,2013-03-23 07:07:00,
2013-03-23 02:12:00,36.1,31.1,30.15,ENE,67,7.0,16.0,82,0.00,,,0.00,meteohub,2013-03-23 07:12:00,
2013-03-23 02:17:00,36.3,31.3,30.15,ENE,70,11.0,16.0,82,0.00,,,0.00,meteohub,2013-03-23 07:17:00,
2013-03-23 02:22:00,36.3,31.1,30.14,ENE,60,9.0,16.0,81,0.00,,,0.00,meteohub,2013-03-23 07:22:00,
2013-03-23 02:27:00,36.3,31.3,30.14,East,84,8.0,15.0,82,0.00,,,0.00,meteohub,2013-03-23 07:27:00,
2013-03-23 02:32:00,36.1,31.1,30.14,ENE,59,7.0,15.0,82,0.00,,,0.00,meteohub,2013-03-23 07:32:00,
2013-03-23 02:37:00,36.3,31.3,30.14,ENE,74,11.0,15.0,82,0.00,,,0.00,meteohub,2013-03-23 07:37:00,
2013-03-23 02:43:00,36.1,31.1,30.13,East,93,16.0,16.0,82,0.00,,,0.00,meteohub,2013-03-23 07:43:00,
2013-03-23 02:48:00,36.0,31.3,30.13,ENE,70,12.0,17.0,83,0.00,,,0.00,meteohub,2013-03-23 07:48:00,
2013-03-23 02:53:00,36.0,31.3,30.13,ENE,67,11.0,17.0,83,0.00,,,0.00,meteohub,2013-03-23 07:53:00,
2013-03-23 02:58:00,36.0,31.3,30.13,East,86,13.0,17.0,83,0.00,,,0.00,meteohub,2013-03-23 07:58:00,
2013-03-23 03:03:00,36.0,31.3,30.13,East,86,12.0,16.0,83,0.00,,,0.00,meteohub,2013-03-23 08:03:00,
2013-03-23 03:08:00,35.8,31.5,30.13,NE,34,10.0,18.0,84,0.00,,,0.00,meteohub,2013-03-23 08:08:00,
2013-03-23 03:13:00,35.8,31.5,30.13,NE,56,13.0,18.0,84,0.00,,,0.00,meteohub,2013-03-23 08:13:00,
2013-03-23 03:18:00,35.8,31.5,30.13,ENE,63,14.0,18.0,84,0.00,,,0.00,meteohub,2013-03-23 08:18:00,
2013-03-23 03:23:00,35.8,31.5,30.13,ENE,77,13.0,18.0,84,0.00,,,0.00,meteohub,2013-03-23 08:23:00,
2013-03-23 03:28:00,35.8,31.6,30.12,ENE,70,12.0,17.0,85,0.00,,,0.00,meteohub,2013-03-23 08:28:00,
2013-03-23 03:33:00,35.6,31.5,30.12,ENE,63,13.0,15.0,85,0.00,,,0.00,meteohub,2013-03-23 08:33:00,
2013-03-23 03:38:00,35.4,31.6,30.13,ENE,57,9.0,15.0,86,0.00,,,0.00,meteohub,2013-03-23 08:38:00,
2013-03-23 03:43:00,35.4,31.6,30.12,NE,53,8.0,15.0,86,0.00,,,0.00,meteohub,2013-03-23 08:43:00,
2013-03-23 03:48:00,35.4,32.0,30.12,ENE,67,11.0,15.0,87,0.00,,,0.00,meteohub,2013-03-23 08:48:00,
2013-03-23 03:53:00,35.1,31.8,30.12,NE,53,12.0,18.0,88,0.00,,,0.00,meteohub,2013-03-23 08:53:00,
2013-03-23 03:58:00,35.1,32.2,30.11,ENE,63,7.0,18.0,89,0.00,,,0.00,meteohub,2013-03-23 08:58:00,
2013-03-23 04:03:00,34.9,32.0,30.11,East,82,5.0,18.0,89,0.00,,,0.00,meteohub,2013-03-23 09:03:00,
2013-03-23 04:08:00,34.7,32.0,30.11,ENE,63,12.0,15.0,90,0.00,,,0.00,meteohub,2013-03-23 09:08:00,
2013-03-23 04:13:00,34.5,31.8,30.11,ENE,70,12.0,13.0,90,0.00,,,0.00,meteohub,2013-03-23 09:13:00,
2013-03-23 04:18:00,34.2,31.8,30.11,NE,51,11.0,17.0,91,0.00,,,0.00,meteohub,2013-03-23 09:18:00,
2013-03-23 04:23:00,34.0,31.8,30.10,ENE,63,11.0,17.0,92,0.00,,,0.00,meteohub,2013-03-23 09:23:00,
2013-03-23 04:28:00,34.0,31.8,30.09,ENE,58,14.0,17.0,92,0.00,,,0.00,meteohub,2013-03-23 09:28:00,
2013-03-23 04:33:00,34.0,32.2,30.09,ENE,59,10.0,18.0,93,0.00,,,0.00,meteohub,2013-03-23 09:33:00,
2013-03-23 04:38:00,34.0,32.2,30.09,ENE,72,10.0,18.0,93,0.00,,,0.00,meteohub,2013-03-23 09:38:00,
2013-03-23 04:43:00,33.8,32.0,30.09,ENE,65,11.0,18.0,93,0.00,,,0.00,meteohub,2013-03-23 09:43:00,
2013-03-23 04:48:00,33.8,32.0,30.10,ENE,59,8.0,18.0,93,0.00,,,0.00,meteohub,2013-03-23 09:48:00,
2013-03-23 04:53:00,33.6,31.8,30.10,ENE,67,9.0,18.0,93,0.00,,,0.00,meteohub,2013-03-23 09:53:00,
2013-03-23 04:58:00,33.6,31.8,30.10,ENE,57,7.0,18.0,93,0.00,,,0.00,meteohub,2013-03-23 09:58:00,
2013-03-23 05:03:00,33.6,32.0,30.09,ENE,72,7.0,16.0,94,0.00,,,0.00,meteohub,2013-03-23 10:03:00,
2013-03-23 05:08:00,33.4,31.8,30.10,ENE,57,10.0,16.0,94,0.00,,,0.00,meteohub,2013-03-23 10:08:00,
2013-03-23 05:13:00,33.4,31.8,30.10,ENE,63,9.0,17.0,94,0.00,,,0.00,meteohub,2013-03-23 10:13:00,
2013-03-23 05:18:00,33.4,31.8,30.10,ENE,65,11.0,17.0,94,0.00,,,0.00,meteohub,2013-03-23 10:18:00,
2013-03-23 05:23:00,33.4,31.8,30.11,ENE,70,8.0,17.0,94,0.00,,,0.00,meteohub,2013-03-23 10:23:00,
2013-03-23 05:28:00,33.3,31.6,30.11,NE,41,7.0,17.0,94,0.00,,,0.00,meteohub,2013-03-23 10:28:00,
2013-03-23 05:33:00,33.3,31.6,30.12,NE,46,11.0,14.0,94,0.00,,,0.00,meteohub,2013-03-23 10:33:00,
2013-03-23 05:38:00,33.3,32.0,30.12,ENE,70,12.0,14.0,95,0.00,,,0.00,meteohub,2013-03-23 10:38:00,
2013-03-23 05:43:00,33.3,32.0,30.12,ENE,77,6.0,14.0,95,0.00,,,0.00,meteohub,2013-03-23 10:43:00,
2013-03-23 05:48:00,33.3,32.0,30.11,ENE,71,14.0,14.0,95,0.00,,,0.00,meteohub,2013-03-23 10:48:00,
2013-03-23 05:53:00,33.1,31.8,30.11,NE,53,11.0,17.0,95,0.00,,,0.00,meteohub,2013-03-23 10:53:00,
2013-03-23 05:58:00,33.1,31.8,30.11,NE,37,11.0,17.0,95,0.00,,,0.00,meteohub,2013-03-23 10:58:00,
2013-03-23 06:03:00,33.1,31.8,30.12,NE,55,10.0,18.0,95,0.00,,,0.00,meteohub,2013-03-23 11:03:00,
2013-03-23 06:08:00,33.1,31.8,30.12,ENE,78,15.0,18.0,95,0.00,,,0.00,meteohub,2013-03-23 11:08:00,
2013-03-23 06:13:00,33.1,32.0,30.13,ENE,72,12.0,18.0,96,0.00,,,0.00,meteohub,2013-03-23 11:13:00,
2013-03-23 06:18:00,32.9,31.8,30.12,NE,54,16.0,16.0,96,0.00,,,0.00,meteohub,2013-03-23 11:18:00,
2013-03-23 06:23:00,32.9,31.8,30.12,NE,47,12.0,15.0,96,0.00,,,0.00,meteohub,2013-03-23 11:23:00,
2013-03-23 06:28:00,32.7,31.6,30.12,NE,54,9.0,18.0,96,0.00,,,0.00,meteohub,2013-03-23 11:28:00,
2013-03-23 06:33:00,32.7,31.6,30.12,NE,51,10.0,19.0,96,0.00,,,0.00,meteohub,2013-03-23 11:33:00,
2013-03-23 06:39:00,32.5,31.5,30.12,ENE,67,13.0,19.0,96,0.00,,,0.00,meteohub,2013-03-23 11:39:00,
2013-03-23 06:44:00,32.7,31.6,30.11,ENE,60,12.0,18.0,96,0.00,,,0.00,meteohub,2013-03-23 11:44:00,
2013-03-23 06:49:00,32.5,31.5,30.12,ENE,63,13.0,18.0,96,0.00,,,0.00,meteohub,2013-03-23 11:49:00,
2013-03-23 06:54:00,32.5,31.5,30.12,ENE,70,14.0,21.0,96,0.00,,,0.00,meteohub,2013-03-23 11:54:00,
2013-03-23 06:59:00,32.5,31.5,30.12,ENE,69,12.0,21.0,96,0.00,,,0.00,meteohub,2013-03-23 11:59:00,
2013-03-23 07:04:00,32.5,31.5,30.12,ENE,73,12.0,21.0,96,0.00,,,0.00,meteohub,2013-03-23 12:04:00,
2013-03-23 07:09:00,32.5,31.5,30.12,ENE,72,17.0,19.0,96,0.00,,,0.00,meteohub,2013-03-23 12:09:00,
2013-03-23 07:14:00,32.5,31.5,30.11,ENE,71,13.0,18.0,96,0.00,,,0.00,meteohub,2013-03-23 12:14:00,
2013-03-23 07:19:00,32.5,31.5,30.12,ENE,59,11.0,18.0,96,0.00,,,0.00,meteohub,2013-03-23 12:19:00,
2013-03-23 07:24:00,32.5,31.5,30.11,ENE,77,11.0,18.0,96,0.00,,,0.00,meteohub,2013-03-23 12:24:00,
2013-03-23 07:29:00,32.5,31.5,30.11,ENE,75,11.0,18.0,96,0.00,,,0.00,meteohub,2013-03-23 12:29:00,
2013-03-23 07:34:00,32.5,31.5,30.11,ENE,67,14.0,22.0,96,0.00,,,0.00,meteohub,2013-03-23 12:34:00,
2013-03-23 07:39:00,32.5,31.5,30.12,East,99,14.0,22.0,96,0.00,,,0.00,meteohub,2013-03-23 12:39:00,
2013-03-23 07:44:00,32.5,31.5,30.13,ENE,75,15.0,22.0,96,0.00,,,0.00,meteohub,2013-03-23 12:44:00,
2013-03-23 07:49:00,32.7,31.6,30.13,ENE,77,6.0,20.0,96,0.00,,,0.00,meteohub,2013-03-23 12:49:00,
2013-03-23 07:54:00,32.7,31.6,30.14,ENE,68,8.0,20.0,96,0.00,,,0.00,meteohub,2013-03-23 12:54:00,
2013-03-23 08:00:00,32.9,31.8,30.14,ENE,70,6.0,17.0,96,0.00,,,0.00,meteohub,2013-03-23 13:00:00,
2013-03-23 08:05:00,32.9,31.8,30.14,ENE,63,6.0,16.0,96,0.00,,,0.00,meteohub,2013-03-23 13:05:00,
2013-03-23 08:10:00,33.1,32.0,30.15,NE,53,8.0,13.0,96,0.00,,,0.00,meteohub,2013-03-23 13:10:00,
2013-03-23 08:15:00,33.1,32.0,30.16,NNE,29,5.0,13.0,96,0.00,,,0.00,meteohub,2013-03-23 13:15:00,
2013-03-23 08:20:00,33.1,32.4,30.14,NE,54,8.0,13.0,97,0.00,,,0.00,meteohub,2013-03-23 13:20:00,
2013-03-23 08:25:00,33.1,32.0,30.15,NE,41,8.0,11.0,96,0.00,,,0.00,meteohub,2013-03-23 13:25:00,
2013-03-23 08:30:00,32.9,31.8,30.15,ENE,63,8.0,16.0,96,0.00,,,0.00,meteohub,2013-03-23 13:30:00,
2013-03-23 08:35:00,33.1,32.0,30.14,ENE,57,7.0,16.0,96,0.00,,,0.00,meteohub,2013-03-23 13:35:00,
2013-03-23 08:40:00,33.1,32.0,30.14,ENE,65,14.0,16.0,96,0.00,,,0.00,meteohub,2013-03-23 13:40:00,
2013-03-23 08:45:00,32.9,31.8,30.12,ENE,72,12.0,16.0,96,0.00,,,0.00,meteohub,2013-03-23 13:45:00,
2013-03-23 08:50:00,32.7,31.6,30.12,East,87,9.0,16.0,96,0.00,,,0.00,meteohub,2013-03-23 13:50:00,
2013-03-23 08:55:00,32.7,31.6,30.10,NE,51,19.0,19.0,96,0.00,,,0.00,meteohub,2013-03-23 13:55:00,
2013-03-23 09:00:00,32.7,31.6,30.11,East,81,15.0,24.0,96,0.00,,,0.00,meteohub,2013-03-23 14:00:00,
2013-03-23 09:05:00,32.5,31.5,30.11,NE,43,16.0,25.0,96,0.00,,,0.00,meteohub,2013-03-23 14:05:00,
2013-03-23 09:10:00,32.4,31.3,30.11,ENE,57,10.0,25.0,96,0.00,,,0.00,meteohub,2013-03-23 14:10:00,
2013-03-23 09:15:00,32.4,31.3,30.11,NE,50,17.0,24.0,96,0.00,,,0.00,meteohub,2013-03-23 14:15:00,
2013-03-23 09:20:00,32.4,31.3,30.12,NE,54,9.0,23.0,96,0.00,,,0.01,meteohub,2013-03-23 14:20:00,
2013-03-23 09:25:00,32.4,31.6,30.12,ENE,59,12.0,20.0,97,0.01,,,0.01,meteohub,2013-03-23 14:25:00,
2013-03-23 09:30:00,32.4,31.6,30.13,NE,37,11.0,23.0,97,0.01,,,0.01,meteohub,2013-03-23 14:30:00,
2013-03-23 09:35:00,32.4,31.6,30.14,NE,43,12.0,23.0,97,0.01,,,0.01,meteohub,2013-03-23 14:35:00,
2013-03-23 09:40:00,32.4,31.6,30.14,NE,51,15.0,23.0,97,0.01,,,0.01,meteohub,2013-03-23 14:40:00,
2013-03-23 09:45:00,32.4,31.6,30.14,NE,52,10.0,18.0,97,0.02,,,0.02,meteohub,2013-03-23 14:45:00,
2013-03-23 09:50:00,32.4,31.6,30.15,ENE,60,11.0,18.0,97,0.02,,,0.02,meteohub,2013-03-23 14:50:00,
2013-03-23 09:55:00,32.4,31.6,30.15,NE,43,12.0,18.0,97,0.02,,,0.02,meteohub,2013-03-23 14:55:00,
2013-03-23 10:00:00,32.2,31.5,30.15,NE,54,11.0,14.0,97,0.02,,,0.02,meteohub,2013-03-23 15:00:00,
2013-03-23 10:05:00,32.2,31.5,30.15,NE,40,8.0,14.0,97,0.02,,,0.02,meteohub,2013-03-23 15:05:00,
2013-03-23 10:10:00,32.2,31.5,30.15,NE,51,9.0,16.0,97,0.02,,,0.02,meteohub,2013-03-23 15:10:00,
2013-03-23 10:15:00,32.0,31.3,30.15,NE,53,14.0,16.0,97,0.01,,,0.02,meteohub,2013-03-23 15:15:00,
2013-03-23 10:20:00,32.0,31.3,30.15,NE,51,11.0,18.0,97,0.01,,,0.02,meteohub,2013-03-23 15:20:00,
2013-03-23 10:25:00,32.0,31.3,30.15,NE,41,9.0,18.0,97,0.01,,,0.02,meteohub,2013-03-23 15:25:00,
2013-03-23 10:30:00,31.8,31.1,30.15,NE,53,10.0,16.0,97,0.01,,,0.02,meteohub,2013-03-23 15:30:00,
2013-03-23 10:35:00,31.8,31.1,30.15,NE,51,8.0,13.0,97,0.01,,,0.02,meteohub,2013-03-23 15:35:00,
2013-03-23 10:40:00,31.8,31.1,30.14,ENE,60,6.0,14.0,97,0.00,,,0.02,meteohub,2013-03-23 15:40:00,
2013-03-23 10:45:00,31.8,31.1,30.14,NE,51,10.0,14.0,97,0.00,,,0.02,meteohub,2013-03-23 15:45:00,
2013-03-23 10:50:00,31.8,31.1,30.14,NE,43,12.0,15.0,97,0.00,,,0.02,meteohub,2013-03-23 15:50:00,
2013-03-23 10:55:00,31.8,31.1,30.13,NE,54,12.0,15.0,97,0.00,,,0.02,meteohub,2013-03-23 15:55:00,
2013-03-23 11:00:00,31.8,31.1,30.12,NE,56,11.0,16.0,97,0.00,,,0.02,meteohub,2013-03-23 16:00:00,
2013-03-23 11:05:00,31.8,31.1,30.12,NE,54,11.0,21.0,97,0.00,,,0.02,meteohub,2013-03-23 16:05:00,
2013-03-23 11:10:00,32.0,31.3,30.12,ENE,57,12.0,21.0,97,0.00,,,0.02,meteohub,2013-03-23 16:10:00,
2013-03-23 11:16:00,32.2,31.5,30.11,ENE,58,15.0,18.0,97,0.00,,,0.02,meteohub,2013-03-23 16:16:00,
2013-03-23 11:21:00,32.2,31.5,30.11,ENE,78,10.0,18.0,97,0.00,,,0.02,meteohub,2013-03-23 16:21:00,
2013-03-23 11:26:00,32.2,31.5,30.12,East,80,13.0,18.0,97,0.00,,,0.02,meteohub,2013-03-23 16:26:00,
2013-03-23 11:31:00,32.2,31.5,30.12,ENE,60,16.0,21.0,97,0.00,,,0.02,meteohub,2013-03-23 16:31:00,
2013-03-23 11:36:00,32.2,31.5,30.12,ENE,72,11.0,21.0,97,0.00,,,0.02,meteohub,2013-03-23 16:36:00,
2013-03-23 11:41:00,32.2,31.5,30.12,NE,47,10.0,19.0,97,0.00,,,0.02,meteohub,2013-03-23 16:41:00,
2013-03-23 11:46:00,32.2,31.5,30.12,NE,47,11.0,18.0,97,0.00,,,0.02,meteohub,2013-03-23 16:46:00,
2013-03-23 11:52:00,32.2,31.5,30.12,ENE,68,15.0,21.0,97,0.00,,,0.02,meteohub,2013-03-23 16:52:00,
2013-03-23 11:57:00,32.4,31.6,30.11,NE,51,12.0,21.0,97,0.00,,,0.02,meteohub,2013-03-23 16:57:00,
2013-03-23 12:02:00,32.4,31.6,30.11,ENE,64,13.0,21.0,97,0.00,,,0.02,meteohub,2013-03-23 17:02:00,
2013-03-23 12:07:00,32.4,31.6,30.11,NE,51,12.0,20.0,97,0.00,,,0.02,meteohub,2013-03-23 17:07:00,
2013-03-23 12:12:00,32.4,31.6,30.11,NE,54,14.0,22.0,97,0.00,,,0.02,meteohub,2013-03-23 17:12:00,
2013-03-23 12:17:00,32.4,31.6,30.11,ENE,57,16.0,22.0,97,0.00,,,0.02,meteohub,2013-03-23 17:17:00,
2013-03-23 12:22:00,32.4,31.6,30.11,NE,49,17.0,21.0,97,0.00,,,0.02,meteohub,2013-03-23 17:22:00,
2013-03-23 12:27:00,32.4,31.6,30.11,NE,54,7.0,21.0,97,0.00,,,0.02,meteohub,2013-03-23 17:27:00,
2013-03-23 12:32:00,32.4,31.6,30.11,ENE,67,12.0,19.0,97,0.00,,,0.02,meteohub,2013-03-23 17:32:00,
2013-03-23 12:37:00,32.4,31.6,30.11,NE,54,9.0,19.0,97,0.00,,,0.02,meteohub,2013-03-23 17:37:00,
2013-03-23 12:42:00,32.4,31.6,30.10,ENE,78,9.0,15.0,97,0.01,,,0.03,meteohub,2013-03-23 17:42:00,
2013-03-23 12:47:00,32.4,31.6,30.10,ENE,65,12.0,18.0,97,0.01,,,0.03,meteohub,2013-03-23 17:47:00,
2013-03-23 12:52:00,32.4,31.6,30.09,ENE,64,11.0,18.0,97,0.01,,,0.03,meteohub,2013-03-23 17:52:00,
2013-03-23 12:58:00,32.5,31.8,30.09,ENE,71,9.0,21.0,97,0.01,,,0.03,meteohub,2013-03-23 17:58:00,
2013-03-23 13:03:00,32.5,31.8,30.09,East,84,8.0,21.0,97,0.01,,,0.03,meteohub,2013-03-23 18:03:00,
2013-03-23 13:08:00,32.5,31.8,30.08,NE,53,14.0,22.0,97,0.01,,,0.03,meteohub,2013-03-23 18:08:00,
2013-03-23 13:13:00,32.5,31.8,30.08,ENE,61,16.0,22.0,97,0.02,,,0.04,meteohub,2013-03-23 18:13:00,
2013-03-23 13:18:00,32.7,32.0,30.08,ENE,63,13.0,21.0,97,0.02,,,0.04,meteohub,2013-03-23 18:18:00,
2013-03-23 13:23:00,32.7,32.0,30.07,NE,44,14.0,21.0,97,0.02,,,0.04,meteohub,2013-03-23 18:23:00,
2013-03-23 13:28:00,32.7,32.0,30.07,ENE,75,13.0,21.0,97,0.02,,,0.04,meteohub,2013-03-23 18:28:00,
2013-03-23 13:33:00,32.9,32.2,30.06,NE,44,10.0,19.0,97,0.02,,,0.04,meteohub,2013-03-23 18:33:00,
2013-03-23 13:38:00,33.1,32.4,30.06,ENE,60,15.0,19.0,97,0.02,,,0.04,meteohub,2013-03-23 18:38:00,
2013-03-23 13:43:00,33.1,32.4,30.06,ENE,61,15.0,20.0,97,0.02,,,0.05,meteohub,2013-03-23 18:43:00,
2013-03-23 13:48:00,33.1,32.4,30.06,ENE,71,17.0,20.0,97,0.02,,,0.05,meteohub,2013-03-23 18:48:00,
2013-03-23 13:53:00,33.1,32.4,30.05,ENE,63,14.0,22.0,97,0.02,,,0.05,meteohub,2013-03-23 18:53:00,
2013-03-23 13:58:00,33.3,32.5,30.05,East,79,15.0,22.0,97,0.02,,,0.05,meteohub,2013-03-23 18:58:00,
2013-03-23 14:03:00,33.1,32.4,30.05,ENE,65,20.0,22.0,97,0.02,,,0.05,meteohub,2013-03-23 19:03:00,
2013-03-23 14:08:00,33.1,32.4,30.05,NE,44,12.0,26.0,97,0.02,,,0.05,meteohub,2013-03-23 19:08:00,
2013-03-23 14:13:00,33.1,32.4,30.06,NE,50,9.0,26.0,97,0.02,,,0.05,meteohub,2013-03-23 19:13:00,
2013-03-23 14:18:00,33.1,32.4,30.06,NE,50,7.0,26.0,97,0.02,,,0.06,meteohub,2013-03-23 19:18:00,
2013-03-23 14:23:00,33.3,32.5,30.06,NE,43,14.0,25.0,97,0.02,,,0.06,meteohub,2013-03-23 19:23:00,
2013-03-23 14:28:00,33.3,32.5,30.06,NE,56,12.0,21.0,97,0.02,,,0.06,meteohub,2013-03-23 19:28:00,
2013-03-23 14:33:00,33.1,32.4,30.06,NE,52,10.0,18.0,97,0.02,,,0.06,meteohub,2013-03-23 19:33:00,
2013-03-23 14:38:00,33.3,32.5,30.06,ENE,60,12.0,25.0,97,0.02,,,0.06,meteohub,2013-03-23 19:38:00,
2013-03-23 14:43:00,33.3,32.5,30.06,NE,56,9.0,25.0,97,0.01,,,0.06,meteohub,2013-03-23 19:43:00,
2013-03-23 14:48:00,33.3,32.5,30.06,NE,54,13.0,25.0,97,0.01,,,0.06,meteohub,2013-03-23 19:48:00,
2013-03-23 14:53:00,33.3,32.5,30.05,NE,51,12.0,18.0,97,0.01,,,0.06,meteohub,2013-03-23 19:53:00,
2013-03-23 14:58:00,33.3,32.5,30.05,ENE,60,15.0,18.0,97,0.01,,,0.06,meteohub,2013-03-23 19:58:00,
2013-03-23 15:03:00,33.3,32.5,30.05,NE,56,10.0,18.0,97,0.01,,,0.06,meteohub,2013-03-23 20:03:00,
2013-03-23 15:08:00,33.3,32.5,30.05,NNE,29,9.0,18.0,97,0.01,,,0.06,meteohub,2013-03-23 20:08:00,
2013-03-23 15:13:00,33.3,32.5,30.05,ENE,68,8.0,19.0,97,0.00,,,0.06,meteohub,2013-03-23 20:13:00,
2013-03-23 15:18:00,33.3,32.5,30.05,NE,54,9.0,19.0,97,0.00,,,0.06,meteohub,2013-03-23 20:18:00,
2013-03-23 15:23:00,33.3,32.5,30.05,NE,52,13.0,16.0,97,0.00,,,0.06,meteohub,2013-03-23 20:23:00,
2013-03-23 15:28:00,33.3,32.5,30.04,NE,52,6.0,16.0,97,0.00,,,0.06,meteohub,2013-03-23 20:28:00,
2013-03-23 15:33:00,33.3,32.5,30.04,NE,56,18.0,18.0,97,0.00,,,0.06,meteohub,2013-03-23 20:33:00,
2013-03-23 15:38:00,33.3,32.5,30.04,NE,47,12.0,19.0,97,0.01,,,0.07,meteohub,2013-03-23 20:38:00,
2013-03-23 15:43:00,33.3,32.5,30.04,NE,53,8.0,19.0,97,0.01,,,0.07,meteohub,2013-03-23 20:43:00,
2013-03-23 15:48:00,33.3,32.5,30.04,ENE,59,10.0,19.0,97,0.01,,,0.07,meteohub,2013-03-23 20:48:00,
2013-03-23 15:53:00,33.3,32.5,30.04,ENE,65,16.0,19.0,97,0.01,,,0.07,meteohub,2013-03-23 20:53:00,
2013-03-23 15:59:00,33.4,32.7,30.04,NE,47,12.0,20.0,97,0.01,,,0.07,meteohub,2013-03-23 20:59:00,
2013-03-23 16:04:00,33.4,32.7,30.04,NE,54,13.0,20.0,97,0.01,,,0.07,meteohub,2013-03-23 21:04:00,
2013-03-23 16:09:00,33.4,32.7,30.03,ENE,63,11.0,20.0,97,0.01,,,0.07,meteohub,2013-03-23 21:09:00,
2013-03-23 16:14:00,33.4,32.7,30.03,ENE,63,11.0,21.0,97,0.01,,,0.07,meteohub,2013-03-23 21:14:00,
2013-03-23 16:19:00,33.3,32.5,30.03,NE,50,12.0,21.0,97,0.01,,,0.07,meteohub,2013-03-23 21:19:00,
2013-03-23 16:24:00,33.3,32.5,30.04,NE,56,12.0,21.0,97,0.01,,,0.07,meteohub,2013-03-23 21:24:00,
2013-03-23 16:29:00,33.3,32.5,30.04,NE,51,10.0,20.0,97,0.01,,,0.07,meteohub,2013-03-23 21:29:00,
2013-03-23 16:34:00,33.4,32.7,30.04,NE,49,13.0,20.0,97,0.01,,,0.07,meteohub,2013-03-23 21:34:00,
2013-03-23 16:39:00,33.3,32.5,30.04,NE,56,12.0,20.0,97,0.00,,,0.07,meteohub,2013-03-23 21:39:00,
2013-03-23 16:44:00,33.3,32.5,30.03,ENE,57,9.0,18.0,97,0.01,,,0.08,meteohub,2013-03-23 21:44:00,
2013-03-23 16:49:00,33.3,32.5,30.04,NNE,30,12.0,18.0,97,0.01,,,0.08,meteohub,2013-03-23 21:49:00,
2013-03-23 16:54:00,33.1,32.4,30.04,ENE,57,15.0,20.0,97,0.01,,,0.08,meteohub,2013-03-23 21:54:00,
2013-03-23 16:59:00,33.3,32.5,30.04,NE,37,10.0,20.0,97,0.01,,,0.08,meteohub,2013-03-23 21:59:00,
2013-03-23 17:04:00,33.1,32.4,30.04,NE,51,10.0,20.0,97,0.01,,,0.08,meteohub,2013-03-23 22:04:00,
2013-03-23 17:09:00,33.1,32.4,30.04,NE,53,15.0,20.0,97,0.01,,,0.08,meteohub,2013-03-23 22:09:00,
2013-03-23 17:14:00,33.1,32.4,30.04,NE,46,15.0,19.0,97,0.01,,,0.08,meteohub,2013-03-23 22:14:00,
2013-03-23 17:19:00,32.9,32.2,30.04,NE,47,13.0,19.0,97,0.01,,,0.08,meteohub,2013-03-23 22:19:00,
2013-03-23 17:24:00,32.9,32.2,30.04,NE,54,16.0,21.0,97,0.01,,,0.08,meteohub,2013-03-23 22:24:00,
2013-03-23 17:29:00,33.1,32.4,30.04,NE,51,12.0,21.0,97,0.01,,,0.08,meteohub,2013-03-23 22:29:00,
2013-03-23 17:34:00,33.1,32.4,30.04,NNE,19,10.0,20.0,97,0.01,,,0.08,meteohub,2013-03-23 22:34:00,
2013-03-23 17:39:00,32.9,32.2,30.05,NE,51,10.0,20.0,97,0.00,,,0.08,meteohub,2013-03-23 22:39:00,
2013-03-23 17:44:00,32.7,32.0,30.05,NE,54,18.0,20.0,97,0.00,,,0.08,meteohub,2013-03-23 22:44:00,
2013-03-23 17:49:00,32.7,32.0,30.05,NE,47,9.0,23.0,97,0.00,,,0.08,meteohub,2013-03-23 22:49:00,
2013-03-23 17:54:00,32.5,31.8,30.05,NNE,22,23.0,23.0,97,0.00,,,0.08,meteohub,2013-03-23 22:54:00,
2013-03-23 17:59:00,32.4,31.6,30.06,NE,51,15.0,23.0,97,0.00,,,0.08,meteohub,2013-03-23 22:59:00,
2013-03-23 18:04:00,32.4,31.6,30.06,North,11,6.0,25.0,97,0.00,,,0.08,meteohub,2013-03-23 23:04:00,
2013-03-23 18:09:00,32.5,31.8,30.06,NNW,335,12.0,25.0,97,0.00,,,0.08,meteohub,2013-03-23 23:09:00,
2013-03-23 18:14:00,32.5,31.8,30.07,NE,39,8.0,22.0,97,0.00,,,0.08,meteohub,2013-03-23 23:14:00,
2013-03-23 18:19:00,32.4,31.6,30.07,NE,51,22.0,22.0,97,0.00,,,0.08,meteohub,2013-03-23 23:19:00,
2013-03-23 18:25:00,32.2,31.5,30.07,NE,56,14.0,26.0,97,0.00,,,0.08,meteohub,2013-03-23 23:25:00,
2013-03-23 18:30:00,32.2,31.5,30.07,NE,40,13.0,26.0,97,0.00,,,0.08,meteohub,2013-03-23 23:30:00,
2013-03-23 18:35:00,32.4,31.6,30.08,NE,44,12.0,26.0,97,0.00,,,0.08,meteohub,2013-03-23 23:35:00,
2013-03-23 18:40:00,32.2,31.5,30.09,NE,54,12.0,22.0,97,0.00,,,0.08,meteohub,2013-03-23 23:40:00,
2013-03-23 18:45:00,32.4,31.6,30.08,NE,44,12.0,20.0,97,0.00,,,0.08,meteohub,2013-03-23 23:45:00,
2013-03-23 18:50:00,32.2,31.5,30.08,NNE,30,13.0,16.0,97,0.01,,,0.09,meteohub,2013-03-23 23:50:00,
2013-03-23 18:55:00,32.0,31.3,30.08,NE,42,11.0,18.0,97,0.01,,,0.09,meteohub,2013-03-23 23:55:00,
2013-03-23 19:00:00,32.0,31.3,30.09,NE,37,9.0,18.0,97,0.01,,,0.09,meteohub,2013-03-24 00:00:00,
2013-03-23 19:05:00,31.8,31.1,30.09,ENE,57,12.0,18.0,97,0.01,,,0.09,meteohub,2013-03-24 00:05:00,
2013-03-23 19:10:00,31.8,31.1,30.09,NNW,347,10.0,18.0,97,0.01,,,0.09,meteohub,2013-03-24 00:10:00,
2013-03-23 19:15:00,31.8,31.1,30.09,NE,37,9.0,19.0,97,0.01,,,0.09,meteohub,2013-03-24 00:15:00,
2013-03-23 19:20:00,31.8,31.1,30.09,NNW,340,8.0,19.0,97,0.01,,,0.09,meteohub,2013-03-24 00:20:00,
2013-03-23 19:25:00,31.8,31.1,30.09,NE,40,14.0,19.0,97,0.01,,,0.09,meteohub,2013-03-24 00:25:00,
2013-03-23 19:30:00,31.8,31.1,30.09,NNE,29,12.0,17.0,97,0.01,,,0.09,meteohub,2013-03-24 00:30:00,
2013-03-23 19:35:00,31.8,31.1,30.09,North,352,6.0,20.0,97,0.01,,,0.09,meteohub,2013-03-24 00:35:00,
2013-03-23 19:40:00,31.8,31.1,30.10,North,11,14.0,20.0,97,0.01,,,0.09,meteohub,2013-03-24 00:40:00,
2013-03-23 19:45:00,31.6,30.9,30.09,NE,53,13.0,20.0,97,0.01,,,0.09,meteohub,2013-03-24 00:45:00,
2013-03-23 19:50:00,31.6,30.9,30.08,NE,52,18.0,19.0,97,0.00,,,0.09,meteohub,2013-03-24 00:50:00,
2013-03-23 19:55:00,31.6,30.9,30.07,NE,45,19.0,24.0,97,0.00,,,0.09,meteohub,2013-03-24 00:55:00,
2013-03-23 20:00:00,31.6,30.9,30.05,NE,47,24.0,26.0,97,0.00,,,0.09,meteohub,2013-03-24 01:00:00,
2013-03-23 20:05:00,31.6,30.9,30.03,ENE,60,18.0,26.0,97,0.00,,,0.09,meteohub,2013-03-24 01:05:00,
2013-03-23 20:10:00,31.6,31.1,30.04,NE,51,21.0,29.0,98,0.00,,,0.09,meteohub,2013-03-24 01:10:00,
2013-03-23 20:15:00,31.5,30.9,30.03,NE,51,22.0,29.0,98,0.00,,,0.09,meteohub,2013-03-24 01:15:00,
2013-03-23 20:20:00,31.5,30.9,30.04,NE,56,28.0,28.0,98,0.00,,,0.09,meteohub,2013-03-24 01:20:00,
2013-03-23 20:25:00,31.5,30.9,30.04,NE,56,23.0,28.0,98,0.00,,,0.09,meteohub,2013-03-24 01:25:00,
2013-03-23 20:30:00,31.5,30.9,30.04,NNE,32,27.0,35.0,98,0.00,,,0.09,meteohub,2013-03-24 01:30:00,
2013-03-23 20:35:00,31.5,30.9,30.03,NE,54,18.0,35.0,98,0.00,,,0.09,meteohub,2013-03-24 01:35:00,
2013-03-23 20:40:00,31.5,30.9,30.03,NE,44,23.0,31.0,98,0.00,,,0.09,meteohub,2013-03-24 01:40:00,
2013-03-23 20:45:00,31.5,30.9,30.05,NE,41,12.0,33.0,98,0.00,,,0.09,meteohub,2013-03-24 01:45:00,
2013-03-23 20:50:00,31.5,30.9,30.07,NE,41,16.0,33.0,98,0.00,,,0.09,meteohub,2013-03-24 01:50:00,
2013-03-23 20:55:00,31.6,31.1,30.08,NNW,347,13.0,33.0,98,0.00,,,0.09,meteohub,2013-03-24 01:55:00,
2013-03-23 21:00:00,31.6,31.1,30.08,NE,44,15.0,32.0,98,0.00,,,0.09,meteohub,2013-03-24 02:00:00,
2013-03-23 21:05:00,31.6,31.1,30.08,NE,56,17.0,32.0,98,0.00,,,0.09,meteohub,2013-03-24 02:05:00,
2013-03-23 21:10:00,31.6,31.1,30.08,NE,50,20.0,32.0,98,0.00,,,0.09,meteohub,2013-03-24 02:10:00,
2013-03-23 21:15:00,31.6,31.1,30.08,NE,40,15.0,32.0,98,0.00,,,0.09,meteohub,2013-03-24 02:15:00,
2013-03-23 21:20:00,31.8,31.3,30.09,NNE,30,10.0,32.0,98,0.00,,,0.09,meteohub,2013-03-24 02:20:00,
2013-03-23 21:25:00,31.8,31.3,30.09,NNE,17,11.0,22.0,98,0.00,,,0.09,meteohub,2013-03-24 02:25:00,
2013-03-23 21:30:00,31.8,31.3,30.09,NE,51,5.0,22.0,98,0.00,,,0.09,meteohub,2013-03-24 02:30:00,
2013-03-23 21:35:00,32.0,31.5,30.10,NNE,19,10.0,25.0,98,0.00,,,0.09,meteohub,2013-03-24 02:35:00,
2013-03-23 21:40:00,32.0,31.5,30.11,NNE,13,19.0,25.0,98,0.00,,,0.09,meteohub,2013-03-24 02:40:00,
2013-03-23 21:45:00,32.0,31.5,30.11,North,353,16.0,25.0,98,0.00,,,0.09,meteohub,2013-03-24 02:45:00,
2013-03-23 21:50:00,32.2,31.6,30.11,NE,41,9.0,25.0,98,0.00,,,0.09,meteohub,2013-03-24 02:50:00,
2013-03-23 21:55:00,32.2,31.6,30.11,NE,53,15.0,25.0,98,0.00,,,0.09,meteohub,2013-03-24 02:55:00,
2013-03-23 22:01:00,32.2,31.6,30.11,NNW,334,8.0,24.0,98,0.00,,,0.09,meteohub,2013-03-24 03:01:00,
2013-03-23 22:06:00,32.2,31.6,30.11,ENE,57,9.0,24.0,98,0.00,,,0.09,meteohub,2013-03-24 03:06:00,
2013-03-23 22:11:00,32.2,31.6,30.09,NE,41,21.0,24.0,98,0.00,,,0.09,meteohub,2013-03-24 03:11:00,
2013-03-23 22:16:00,31.8,31.3,30.10,NE,44,16.0,28.0,98,0.00,,,0.09,meteohub,2013-03-24 03:16:00,
2013-03-23 22:21:00,31.8,31.1,30.13,NE,47,9.0,28.0,97,0.00,,,0.09,meteohub,2013-03-24 03:21:00,
2013-03-23 22:26:00,31.8,31.1,30.14,NE,43,7.0,28.0,97,0.00,,,0.09,meteohub,2013-03-24 03:26:00,
2013-03-23 22:31:00,31.8,31.1,30.14,NNE,26,8.0,27.0,97,0.00,,,0.09,meteohub,2013-03-24 03:31:00,
2013-03-23 22:36:00,31.8,31.1,30.13,NNE,13,10.0,19.0,97,0.00,,,0.09,meteohub,2013-03-24 03:36:00,
2013-03-23 22:41:00,31.6,30.9,30.12,North,356,18.0,26.0,97,0.00,,,0.09,meteohub,2013-03-24 03:41:00,
2013-03-23 22:47:00,31.6,30.9,30.12,NNW,335,9.0,27.0,97,0.00,,,0.09,meteohub,2013-03-24 03:47:00,
2013-03-23 22:52:00,31.6,30.9,30.12,North,1,9.0,27.0,97,0.00,,,0.09,meteohub,2013-03-24 03:52:00,
2013-03-23 22:57:00,31.5,30.7,30.10,NNE,15,18.0,27.0,97,0.00,,,0.09,meteohub,2013-03-24 03:57:00,
2013-03-23 23:00:00,31.5,30.7,30.10,NNE,23,12.0,27.0,97,0.00,,,0.09,meteohub,2013-03-24 04:00:00,
2013-03-23 23:05:00,31.3,30.6,30.12,NNW,335,9.0,25.0,97,0.00,,,0.09,meteohub,2013-03-24 04:05:00,
2013-03-23 23:10:00,31.1,30.4,30.12,NNE,22,13.0,25.0,97,0.00,,,0.09,meteohub,2013-03-24 04:10:00,
2013-03-23 23:15:00,30.9,30.2,30.12,NNE,16,14.0,25.0,97,0.00,,,0.09,meteohub,2013-03-24 04:15:00,
2013-03-23 23:20:00,30.7,30.0,30.13,NNE,19,12.0,22.0,97,0.00,,,0.09,meteohub,2013-03-24 04:20:00,
2013-03-23 23:25:00,30.7,30.0,30.12,North,351,11.0,22.0,97,0.00,,,0.09,meteohub,2013-03-24 04:25:00,
2013-03-23 23:30:00,30.6,29.8,30.12,NNW,346,11.0,20.0,97,0.00,,,0.09,meteohub,2013-03-24 04:30:00,
2013-03-23 23:35:00,30.6,29.8,30.13,NNE,15,9.0,20.0,97,0.00,,,0.09,meteohub,2013-03-24 04:35:00,
2013-03-23 23:40:00,30.6,29.8,30.13,North,5,11.0,18.0,97,0.00,,,0.09,meteohub,2013-03-24 04:40:00,
2013-03-23 23:45:00,30.6,29.8,30.13,North,350,11.0,18.0,97,0.00,,,0.09,meteohub,2013-03-24 04:45:00,
2013-03-23 23:50:00,30.6,29.8,30.13,North,353,10.0,18.0,97,0.00,,,0.09,meteohub,2013-03-24 04:50:00,
2013-03-23 23:55:00,30.4,29.7,30.13,North,9,15.0,18.0,97,0.00,,,0.09,meteohub,2013-03-24 04:55:00,